Theta_e
315 316 316 315 314 314 313 312 313 314 315 316 315 313 312 311 311 314 316 316 317 316 317 319 318 324 331 336 340 340 341 343 343 344 344 343 342 340 339 338 336 335 334 333 332 333 334 335 335 335 336 338 339 339 340 340 340 340 340 340 340 339 339 339 340 340 340 340 341 340 340 341 339 336 335 336 337 336 336 337 337 337 337 337 338 337
315 317 316 313 313 313 312 314 315 315 315 315 315 313 311 310 311 314 317 316 316 318 317 317 324 334 340 341 342 341 342 343 343 343 342 340 339 337 337 336 334 333 331 330 330 331 331 332 332 333 333 334 335 335 336 337 337 339 339 340 340 339 339 339 339 339 340 340 340 341 340 340 340 338 336 335 336 336 336 335 336 337 337 337 337 338
316 316 315 313 313 312 312 313 315 315 316 317 315 313 311 311 312 314 316 316 316 318 317 323 335 338 341 340 339 340 340 340 339 338 337 336 335 334 334 333 332 331 330 329 329 329 329 329 330 331 331 331 331 332 333 334 335 337 337 338 339 339 340 340 339 339 339 340 340 340 340 340 340 340 339 337 335 335 336 337 337 337 337 337 336 337
315 313 313 313 312 311 312 312 313 315 316 318 316 313 312 312 311 311 314 317 316 318 322 330 338 339 338 338 338 337 336 336 335 333 332 332 331 330 330 330 330 329 329 328 327 328 328 328 328 329 329 330 330 330 330 332 333 334 335 335 336 337 337 337 338 339 338 339 339 340 340 340 340 340 339 339 337 335 334 336 337 337 337 336 336 336
313 312 312 313 312 311 312 312 314 316 316 319 317 314 312 313 313 313 315 317 315 321 327 331 334 336 336 338 338 336 335 334 333 332 331 330 329 328 328 327 328 328 328 328 327 327 327 327 327 327 328 328 328 328 329 329 330 331 332 332 333 334 334 334 336 336 337 338 338 339 339 339 340 339 339 339 339 337 334 334 335 336 337 337 337 337
312 313 312 312 312 311 312 312 313 316 317 318 318 316 314 314 316 315 316 316 313 320 328 329 332 335 336 338 337 335 335 334 333 332 332 330 329 328 328 327 327 327 327 327 327 326 326 326 326 326 326 327 327 327 327 327 328 329 329 329 331 332 331 332 333 334 336 337 337 337 338 338 339 338 338 338 338 337 336 335 334 333 335 336 336 336
312 313 312 312 312 312 312 312 313 317 317 315 317 317 316 316 317 315 315 314 311 319 328 329 332 336 336 336 336 334 333 333 332 332 331 329 329 328 328 327 327 327 327 327 326 326 326 326 326 326 326 326 326 326 326 326 326 327 327 327 328 329 329 330 331 332 333 334 334 335 335 336 337 337 337 338 337 337 337 337 337 334 334 335 336 336
313 314 312 312 312 311 311 312 313 316 315 314 317 317 318 317 317 316 315 313 314 322 329 326 330 336 336 335 335 334 333 333 331 331 330 329 329 328 327 327 326 326 326 326 325 325 325 325 325 325 325 325 325 325 325 325 325 326 326 326 326 326 327 327 328 329 330 331 332 332 332 333 334 334 335 336 336 337 337 337 337 336 335 334 335 336
314 314 314 312 312 311 311 313 314 315 314 315 317 318 318 317 318 317 314 314 317 324 326 325 328 332 333 335 335 333 334 333 332 330 330 329 329 328 327 326 326 325 325 324 325 325 325 325 325 324 324 324 324 324 324 324 324 324 325 325 325 325 325 326 326 327 327 328 329 329 329 330 330 331 332 333 334 335 335 335 336 336 336 334 334 335
314 314 314 313 312 311 312 314 314 314 314 316 317 317 318 317 317 316 315 314 316 322 323 321 322 325 330 336 336 334 335 333 331 330 329 329 329 328 327 326 325 324 323 323 323 324 324 324 323 323 322 322 322 323 323 323 323 323 324 324 324 323 324 324 325 326 326 326 327 327 327 328 328 329 329 330 331 331 332 333 333 334 334 335 334 335
314 314 315 315 314 312 313 313 313 314 316 317 316 315 316 317 317 319 321 316 313 319 320 317 319 319 325 334 335 334 335 332 330 330 329 328 328 328 327 325 324 323 322 322 322 322 322 322 322 322 321 321 321 321 321 322 322 322 323 323 322 322 323 323 323 324 324 324 325 325 325 325 326 326 326 327 329 329 330 331 331 331 331 332 333 334
314 314 315 316 315 314 313 313 313 314 315 317 316 315 314 315 314 314 316 315 316 321 319 316 316 315 322 335 337 334 332 328 328 329 328 328 328 327 326 325 324 322 321 321 321 321 321 321 321 320 320 320 320 321 321 321 321 322 322 321 321 321 321 322 323 322 322 323 323 323 323 323 323 323 324 325 327 328 328 329 329 330 330 331 332 333
314 314 314 315 316 315 313 312 313 313 314 317 316 315 314 313 312 311 315 316 317 320 318 314 316 320 330 339 337 333 330 327 328 327 327 327 327 326 325 323 322 321 321 320 320 321 320 320 320 320 320 320 320 321 320 320 320 320 321 320 320 321 320 321 321 321 321 322 322 321 322 322 322 321 322 323 325 325 326 325 326 328 330 331 332 332
314 315 314 314 316 315 313 312 311 312 315 316 314 314 315 314 313 313 316 317 318 318 314 311 323 335 340 338 333 331 329 327 327 326 326 326 325 325 323 322 321 320 319 319 319 320 320 320 320 320 320 320 319 320 320 319 319 319 320 320 319 319 319 319 320 320 320 321 321 320 320 321 322 321 321 321 321 322 322 323 324 326 327 328 328 329
315 316 316 314 314 315 315 313 315 316 316 316 314 315 316 316 317 317 317 317 319 318 313 316 332 341 343 336 330 330 327 326 326 325 325 325 323 323 321 320 319 319 318 319 319 320 320 320 319 319 319 319 318 319 319 318 318 318 319 319 318 318 318 318 319 319 319 319 319 319 319 319 320 321 320 319 318 318 319 321 322 323 323 323 324 324
313 314 315 315 314 315 315 315 318 317 314 316 314 312 313 317 320 319 318 319 319 317 320 332 337 337 338 334 328 327 326 326 326 324 323 322 321 320 320 319 319 318 318 319 320 320 319 319 319 318 318 318 318 318 318 318 318 318 318 318 318 318 317 317 318 318 318 319 318 318 318 318 318 318 317 317 317 317 317 318 319 319 320 320 321 322
314 315 314 314 315 314 315 317 317 316 315 316 313 311 313 317 320 319 317 318 320 320 327 337 339 335 336 335 329 327 327 325 324 323 321 320 320 319 320 320 319 319 319 319 320 320 319 319 318 318 318 317 317 317 317 317 317 317 317 317 317 317 317 317 317 318 317 318 317 317 317 317 316 316 316 316 316 316 315 316 316 316 317 317 318 319
319 318 314 313 314 314 317 318 317 317 317 314 311 312 315 314 319 323 319 317 318 322 330 337 340 337 337 337 332 327 326 325 323 321 321 320 319 319 319 319 319 319 319 318 319 318 318 318 318 318 317 317 317 317 317 316 316 316 316 316 316 316 316 316 317 317 317 316 316 316 315 315 315 315 315 315 315 314 314 315 315 315 315 315 315 316
319 318 316 314 315 316 316 317 317 317 315 314 313 314 319 317 316 318 319 318 316 322 335 340 338 337 336 335 333 328 326 326 322 321 321 320 319 318 318 318 318 318 319 319 319 318 317 317 317 317 316 316 316 316 315 315 315 315 315 315 316 315 316 316 316 316 316 315 315 315 315 314 314 314 314 313 313 312 313 313 313 314 313 313 313 314
322 320 319 317 314 316 316 315 316 315 314 315 314 313 319 320 317 316 318 320 317 323 339 342 336 337 336 332 330 327 326 324 322 321 321 319 319 318 318 318 318 319 320 320 319 318 317 316 316 315 315 315 315 314 313 314 314 314 314 314 314 314 315 315 315 315 315 314 314 314 313 313 314 313 313 312 312 311 312 312 312 312 312 311 312 312
320 319 323 323 315 315 316 314 315 316 315 315 314 314 314 314 316 318 317 317 317 324 338 340 338 337 335 331 329 327 325 323 322 321 320 319 318 318 318 319 319 319 319 319 318 317 316 315 314 313 313 313 313 312 311 312 313 313 313 313 313 313 314 315 314 314 313 313 312 312 312 313 312 312 311 311 311 311 311 310 311 311 310 310 310 310
320 319 324 325 317 312 315 315 314 316 316 316 316 317 315 313 314 315 316 316 312 318 330 337 341 338 332 331 330 326 324 323 321 320 319 319 318 318 319 319 319 319 318 317 316 315 314 314 313 311 311 311 311 311 310 310 311 312 312 312 312 312 313 314 314 313 312 312 312 312 311 311 311 310 310 310 310 310 309 309 309 309 309 308 308 308
330 323 319 319 317 315 315 315 315 315 315 315 316 317 316 316 313 313 321 324 313 315 329 337 339 336 330 330 330 325 322 322 320 319 319 319 318 318 318 318 318 317 316 315 314 313 312 312 312 311 310 310 310 310 309 309 309 310 311 311 312 312 312 313 313 312 311 311 311 310 310 310 310 310 310 310 310 309 308 307 308 308 307 307 306 306
328 323 318 317 316 316 315 314 315 315 314 315 316 317 316 318 317 315 324 327 317 320 333 340 338 333 330 330 327 322 321 320 319 319 319 318 318 318 317 317 316 316 315 314 313 311 311 311 311 311 311 310 310 309 309 309 309 309 310 311 311 311 311 312 312 311 311 311 310 309 309 309 309 309 309 309 309 308 308 307 307 307 306 306 305 305
320 323 326 322 316 315 316 316 315 315 314 314 317 319 317 317 317 316 320 321 318 322 332 340 339 332 329 327 322 319 320 319 318 318 318 318 318 317 316 316 315 314 314 314 313 312 311 311 311 311 310 310 310 309 309 308 308 308 309 310 310 310 311 311 311 310 310 310 310 309 309 309 309 309 309 309 308 308 307 307 307 307 306 305 305 305
323 326 330 331 326 324 323 322 321 319 315 313 315 317 317 316 315 318 321 319 318 324 334 337 335 330 327 323 320 320 320 318 318 318 317 317 317 316 316 315 314 314 314 315 315 313 312 311 310 310 310 310 309 309 308 308 308 308 308 309 310 310 310 310 310 309 309 309 309 308 308 308 308 307 307 307 307 307 307 307 307 307 306 305 305 305
323 323 327 334 333 330 329 326 323 318 314 313 315 315 316 318 316 318 322 322 323 333 338 333 329 329 326 323 320 320 319 318 318 318 317 317 316 316 316 314 314 314 314 315 315 313 312 311 310 310 310 310 309 308 308 307 307 307 307 308 309 309 309 309 309 308 308 308 308 308 307 307 307 306 306 306 306 306 306 306 306 307 307 306 305 305
326 322 323 328 327 327 328 324 321 319 314 312 314 315 317 320 317 317 323 326 327 335 337 329 327 328 326 323 321 320 319 318 318 317 317 317 316 315 314 314 314 314 314 314 313 313 313 312 310 309 309 309 308 308 307 307 307 307 307 308 308 308 308 308 308 308 308 307 307 307 307 307 306 306 305 305 305 305 305 305 305 305 306 306 306 305
329 323 322 323 321 324 327 326 327 327 321 315 312 315 321 323 321 323 329 331 329 333 334 328 327 327 324 322 320 319 319 318 318 317 317 316 315 314 313 313 313 312 313 313 312 313 313 311 309 309 309 309 308 307 307 307 307 306 306 307 307 307 307 307 307 307 306 306 307 307 306 306 306 305 305 305 304 304 304 304 304 304 304 304 304 304
326 323 321 320 320 322 327 331 331 329 328 326 322 324 328 329 329 332 332 331 333 334 330 326 326 325 322 320 319 319 318 317 317 317 316 315 314 313 312 312 312 311 311 312 312 312 311 309 309 308 308 308 308 307 307 307 307 306 306 307 306 306 306 306 305 305 305 305 306 306 305 305 305 304 304 304 304 303 303 303 303 303 303 303 303 303
324 322 321 327 329 325 329 335 332 326 327 328 325 326 329 331 332 333 328 326 328 329 325 324 324 323 320 318 317 317 317 317 317 317 316 315 313 312 311 311 310 310 310 310 311 311 309 307 308 308 308 307 307 307 306 306 306 306 306 306 306 306 305 305 305 304 304 304 304 305 305 304 304 304 304 304 303 303 303 302 303 303 303 302 302 302
330 331 330 336 337 328 329 336 333 329 332 331 326 325 329 332 331 329 328 326 326 325 323 324 323 321 318 316 316 316 316 316 317 316 316 314 312 311 310 310 310 309 310 310 310 310 309 307 307 307 307 306 306 306 306 306 306 306 305 305 305 305 305 304 304 304 303 304 304 304 304 304 304 303 303 303 303 303 302 302 302 303 303 302 302 302
329 337 336 336 335 330 329 334 335 338 340 335 327 324 326 329 327 325 326 326 324 323 323 323 322 319 316 315 315 316 315 316 316 315 314 312 311 310 310 309 309 309 309 309 309 309 308 306 306 306 306 306 306 306 306 306 306 305 305 305 305 304 304 304 304 303 303 303 303 303 303 303 303 303 301 300 301 302 302 302 302 302 302 302 301 301
327 336 338 336 334 331 331 332 332 336 335 329 324 323 324 324 323 321 321 321 321 321 321 320 318 315 315 315 315 315 315 315 314 313 311 310 310 310 309 308 308 308 308 309 308 307 306 306 306 306 305 305 305 305 305 305 305 305 304 304 304 304 303 304 303 303 302 302 302 302 302 302 302 301 299 298 299 300 301 301 301 302 302 302 301 301
330 334 334 333 332 330 331 331 330 330 327 324 323 322 320 318 317 317 316 315 317 318 317 316 315 314 314 314 313 314 313 313 312 311 310 310 309 309 308 308 308 307 307 308 307 306 305 306 305 305 304 305 305 305 305 305 305 304 304 304 304 303 303 303 303 302 302 301 301 301 301 301 301 300 299 298 298 298 299 300 300 301 301 302 301 300
330 333 331 329 328 328 328 328 329 327 323 322 323 320 319 319 318 319 319 315 314 315 315 314 314 313 313 313 312 312 311 311 311 310 310 310 309 309 308 307 306 306 305 306 305 305 305 305 305 305 304 304 304 304 304 304 304 304 304 304 303 303 302 302 302 302 301 301 301 300 300 300 300 300 299 298 298 298 298 299 299 300 301 301 301 300
326 328 330 329 326 324 324 323 323 323 323 322 323 322 322 324 322 321 321 316 313 313 313 313 313 312 312 312 311 310 309 310 310 310 310 310 309 308 307 306 305 305 304 304 304 305 305 304 304 304 304 303 304 304 304 304 303 303 303 303 303 303 302 302 302 302 301 301 300 300 300 300 300 300 299 298 298 297 297 298 299 299 299 299 300 300
326 325 329 330 325 321 322 321 321 324 325 323 323 323 323 324 320 318 320 317 314 312 312 312 312 312 311 310 310 309 309 310 310 310 309 308 307 306 305 304 304 304 304 304 304 304 304 304 304 304 304 304 304 304 304 303 303 303 303 302 302 302 302 301 301 301 301 301 300 300 299 299 300 300 299 298 298 297 297 297 298 298 298 298 298 299
326 324 326 328 324 321 322 324 322 323 323 321 322 322 321 321 320 320 324 321 314 311 312 311 311 310 310 310 309 309 309 310 310 309 308 307 306 305 304 304 303 304 303 303 303 304 304 304 303 303 303 304 304 304 304 303 303 302 302 302 302 302 302 301 301 301 301 301 300 299 299 299 299 300 299 298 297 297 297 297 297 297 297 297 297 297
324 326 326 326 325 323 324 325 323 322 322 321 322 321 319 319 321 323 327 324 314 310 311 310 309 310 309 309 308 308 310 310 308 307 307 306 305 304 304 303 303 303 303 303 303 303 303 303 303 303 303 303 303 303 303 303 303 302 302 302 301 301 301 301 301 301 301 301 300 299 299 299 299 299 299 298 297 297 297 297 297 297 296 296 296 296
322 325 327 326 326 324 324 324 322 322 323 321 321 322 320 320 322 325 327 321 312 310 310 309 309 309 308 308 308 308 309 308 307 307 306 305 305 304 304 303 303 303 303 303 303 303 303 303 303 302 302 302 303 303 303 303 302 302 302 302 301 301 301 301 301 300 300 301 300 300 299 299 299 299 299 299 297 297 297 297 297 297 296 296 295 295
322 322 324 326 325 323 323 323 322 322 321 320 321 321 319 322 324 323 319 314 310 310 310 308 309 308 307 307 308 308 307 306 306 306 306 305 305 304 303 302 302 302 302 303 303 303 303 303 302 302 302 302 302 302 303 303 302 302 302 301 301 301 300 301 301 300 300 300 300 300 299 299 299 299 299 299 298 297 297 296 297 297 296 296 295 295
323 322 322 323 323 322 322 323 323 324 322 320 320 319 319 322 321 315 311 310 309 309 309 308 308 307 307 307 307 306 306 305 306 306 306 305 303 302 302 302 302 301 302 303 303 303 303 303 302 302 302 302 301 302 302 302 302 302 301 301 301 300 300 300 300 300 300 300 300 300 300 300 299 299 299 299 299 297 297 296 296 296 296 296 295 295
324 323 324 322 321 322 324 322 322 322 320 320 321 320 318 318 314 310 309 309 309 308 308 307 307 307 307 306 306 305 305 306 306 306 306 305 302 301 301 301 301 302 302 302 303 303 302 302 302 301 301 301 301 301 302 302 302 302 302 301 301 300 300 300 300 300 300 300 299 300 300 300 299 299 299 299 299 298 297 297 296 296 295 295 295 294
323 320 322 321 318 319 322 320 318 317 316 317 318 316 314 313 312 310 309 309 308 308 307 307 306 306 306 305 305 305 305 305 305 305 305 304 302 300 300 301 301 302 302 302 302 302 302 301 301 301 301 301 301 301 302 302 302 302 301 301 301 300 300 300 300 300 300 300 299 299 300 300 299 299 299 298 298 298 298 297 296 296 295 295 294 294
319 317 319 320 317 317 318 317 316 316 316 315 315 313 312 312 311 310 309 309 309 308 307 307 307 306 305 305 305 305 305 304 304 304 304 303 301 301 301 301 301 302 302 302 301 301 301 300 300 300 301 301 301 301 302 302 302 301 301 301 301 301 300 300 300 300 299 300 300 299 299 300 300 299 299 298 298 298 298 297 296 296 295 294 294 293
317 316 318 318 318 318 318 316 315 315 315 314 314 313 312 311 311 310 310 310 309 308 307 307 306 305 305 305 305 305 304 304 304 304 303 302 301 301 301 301 301 301 301 301 301 300 300 300 300 301 301 301 301 302 302 302 301 301 301 301 301 301 300 300 300 299 299 299 300 299 300 300 300 300 299 299 298 298 298 298 297 296 295 294 294 293
317 317 317 317 317 318 318 316 314 314 313 313 314 313 312 312 311 311 310 309 309 308 306 305 305 305 305 305 304 304 304 305 304 303 302 302 301 301 301 301 301 301 301 300 300 300 300 300 301 301 301 301 301 302 302 302 301 301 301 301 300 300 300 300 300 300 300 300 300 299 299 299 300 300 299 299 299 298 298 298 297 296 295 294 294 294
317 317 317 316 316 316 316 314 313 314 313 313 313 313 312 311 310 309 309 308 308 307 306 305 305 305 305 304 304 304 305 304 303 302 302 301 301 301 301 301 301 301 300 300 300 300 300 300 301 301 301 301 301 302 302 301 301 301 301 300 300 300 300 300 300 300 300 300 300 300 299 299 299 299 299 299 299 299 298 298 297 297 295 295 294 294
316 316 315 315 315 316 315 314 314 315 314 313 312 311 310 310 309 309 308 308 307 306 306 306 306 305 304 305 304 304 304 303 301 301 301 301 300 300 301 301 300 300 300 300 300 301 301 301 301 301 301 301 301 302 302 301 301 301 301 301 300 300 300 300 299 299 300 300 300 300 300 299 299 299 299 299 299 299 299 298 297 297 296 295 295 294
316 314 313 314 315 315 314 314 314 314 313 312 310 310 309 309 309 308 307 307 307 306 306 306 306 305 305 305 304 303 302 301 301 301 300 299 300 301 301 301 300 300 300 300 301 301 301 301 301 301 301 301 301 302 302 301 301 301 300 300 300 300 300 300 299 299 299 299 299 300 300 299 299 298 298 298 298 298 298 298 298 297 297 296 295 295
Wind_Speed
4 4 4 5 6 7 9 10 10 12 12 9 8 9 10 8 8 7 10 12 12 8 6 8 8 6 10 14 15 15 16 16 15 13 11 10 10 10 11 11 11 10 9 13 18 20 22 22 21 22 22 22 22 21 20 19 18 15 12 10 8 6 4 3 3 2 2 2 1 3 6 8 5 5 8 8 8 9 10 11 13 14 16 16 16 17
5 6 6 6 8 8 10 11 12 12 12 11 5 5 8 9 10 8 11 15 12 8 7 9 10 11 13 14 13 14 16 14 12 13 12 12 12 10 11 12 10 9 8 12 16 18 20 21 21 21 22 22 21 20 20 19 18 17 16 13 9 6 4 3 3 4 4 5 3 2 4 6 6 3 5 9 12 12 10 12 13 14 16 15 17 19
5 6 7 9 9 10 10 11 13 13 11 9 5 4 6 7 8 7 12 17 12 6 6 10 14 12 12 14 13 14 15 11 10 13 13 11 12 10 11 10 9 9 8 10 11 14 17 19 19 20 20 19 19 20 20 19 18 17 17 15 12 9 7 6 5 6 6 5 4 4 5 5 6 5 2 6 12 13 10 11 11 12 14 15 17 19
6 5 9 11 10 11 12 12 13 12 9 6 5 4 6 8 7 5 10 18 13 5 8 16 14 8 10 13 12 12 13 12 12 14 13 12 11 11 10 9 8 9 8 9 9 11 14 17 17 18 17 17 18 19 19 19 19 17 16 15 14 13 12 11 9 9 8 6 5 5 5 5 6 5 4 3 7 10 11 12 11 9 12 15 16 17
6 7 10 11 11 13 12 11 11 9 6 6 7 7 8 11 8 5 10 14 10 4 11 17 10 4 8 11 10 9 11 12 11 12 13 11 11 10 10 10 9 8 7 8 9 9 12 14 16 16 16 16 18 18 18 18 18 17 15 14 13 13 13 13 11 11 10 8 8 8 6 5 5 5 5 4 4 6 8 12 12 8 9 13 14 14
7 9 13 13 12 13 12 11 10 8 5 5 7 10 13 14 9 4 14 12 5 4 9 14 7 1 5 11 11 8 9 11 9 10 11 10 10 10 9 9 8 7 7 7 8 9 11 13 14 15 15 16 16 16 16 16 16 16 15 14 13 12 13 13 12 11 10 9 12 13 12 10 9 9 7 5 6 7 6 7 8 7 7 8 10 13
7 10 14 15 13 13 12 10 10 8 5 5 6 10 13 13 11 3 15 13 4 5 8 11 8 1 2 7 10 9 9 10 9 9 10 9 8 9 8 8 7 7 6 6 7 9 11 12 12 13 14 14 14 14 14 15 15 15 16 15 13 12 12 12 12 11 11 10 12 14 14 14 12 11 10 9 10 10 10 10 7 6 6 7 9 13
8 11 13 16 13 11 10 9 10 8 6 5 7 9 9 9 9 5 9 9 5 7 7 8 9 4 3 5 10 12 11 9 8 9 8 7 8 9 9 8 8 6 6 6 6 8 10 11 11 12 13 13 13 13 14 15 15 15 14 14 13 13 12 12 12 12 13 12 13 14 15 15 15 14 13 13 12 11 10 10 10 9 8 8 10 12
10 12 12 15 13 9 7 8 10 9 7 5 8 8 7 7 7 4 3 3 5 10 6 6 8 5 3 5 10 13 11 9 8 8 8 7 8 9 10 10 9 7 7 6 6 7 10 12 12 13 13 14 13 14 14 14 14 13 13 13 13 14 14 13 13 12 13 13 13 15 16 17 17 16 16 15 14 14 14 12 12 12 11 10 10 9
9 12 11 13 11 8 8 9 11 11 7 5 9 9 6 8 6 2 4 4 5 8 8 9 9 6 2 5 9 9 8 9 8 7 8 8 8 8 9 10 9 8 7 7 7 9 11 13 13 14 15 15 14 14 14 14 14 12 12 12 12 12 12 12 13 13 13 13 14 15 16 17 18 18 18 17 17 18 18 16 15 15 15 14 12 9
8 11 10 9 9 8 8 10 12 12 7 7 10 9 6 7 2 2 1 2 3 4 7 10 11 7 3 6 9 6 7 12 11 8 8 8 9 9 8 9 9 8 6 6 7 9 12 13 14 16 16 15 15 14 13 12 11 11 11 12 13 13 12 12 13 13 13 12 14 15 16 17 18 18 19 18 19 20 20 19 19 19 17 17 16 14
9 10 9 5 7 10 9 9 10 12 8 7 7 5 3 5 2 2 3 4 2 5 5 7 10 9 4 5 6 5 10 15 13 11 12 11 10 8 7 8 9 8 7 6 6 6 9 11 13 15 15 13 11 10 11 11 11 12 14 15 16 15 14 14 13 13 13 13 14 15 15 17 18 18 18 18 18 19 20 20 21 21 21 21 20 19
8 8 9 6 6 10 9 6 7 10 8 7 6 4 3 2 1 2 1 2 3 5 6 7 7 6 2 0 3 9 13 13 11 11 13 12 11 9 8 8 8 8 8 6 5 4 6 8 10 12 11 9 9 8 10 12 14 15 16 16 16 16 16 15 14 14 14 13 14 15 15 16 17 17 17 18 18 18 19 19 20 21 22 23 23 22
5 5 9 10 5 7 9 6 6 7 6 8 6 4 5 3 3 4 2 2 2 2 8 9 6 3 1 2 3 9 12 11 11 11 11 11 11 9 9 9 8 8 8 6 4 4 4 6 8 9 9 9 10 11 13 14 14 14 15 15 16 17 16 15 15 15 15 15 16 18 18 17 16 16 17 18 19 19 18 19 20 20 21 22 23 23
6 5 7 9 5 5 9 6 6 5 4 5 5 5 5 4 4 4 3 3 3 3 6 6 4 2 1 2 5 9 12 12 12 11 10 10 8 8 9 8 8 8 7 5 4 4 5 7 9 10 9 9 10 11 11 11 11 13 16 16 16 16 15 16 17 17 17 17 18 19 19 19 18 17 18 20 21 20 20 19 19 19 20 22 23 23
8 6 4 8 7 10 12 7 5 6 4 4 3 4 5 5 4 3 4 6 3 2 2 2 3 3 3 5 7 11 12 11 12 11 11 10 9 9 8 7 7 7 5 5 3 3 5 8 10 10 8 9 9 9 8 9 12 15 17 17 17 16 16 16 17 17 18 18 18 19 20 21 20 20 22 21 20 21 21 20 20 20 21 22 23 23
6 5 6 8 8 11 12 6 4 5 4 4 4 4 5 5 5 4 4 4 5 3 1 1 3 4 4 4 5 11 13 11 11 11 11 10 10 9 7 6 6 5 4 4 3 3 5 7 9 10 9 9 9 10 12 14 15 16 17 17 17 16 16 17 17 18 19 19 20 21 22 23 23 23 23 22 21 22 22 22 21 22 22 23 24 24
6 3 7 12 9 8 8 4 6 5 4 5 6 5 4 4 3 4 3 2 4 3 1 3 6 7 5 2 4 11 14 12 11 11 10 10 9 8 6 5 5 4 4 5 5 5 6 8 9 10 10 11 11 14 17 18 17 17 17 15 14 15 18 18 19 19 20 21 22 22 22 23 24 24 24 23 24 24 23 23 23 23 23 24 23 23
6 2 5 11 11 7 8 7 8 10 8 5 4 5 5 4 4 2 3 3 4 4 2 4 7 5 4 4 7 11 13 13 12 11 11 10 9 8 6 6 6 5 5 5 5 5 6 9 11 12 12 14 16 18 19 19 18 18 17 15 14 16 17 18 19 20 21 22 22 22 22 23 24 24 25 25 26 26 25 24 23 23 24 24 24 23
5 3 3 7 13 8 6 7 6 7 9 5 2 3 4 5 3 3 3 4 5 4 3 5 5 3 2 7 12 12 12 13 13 11 10 11 10 8 7 6 6 5 4 4 5 5 7 11 14 15 15 15 18 19 19 18 17 17 17 19 19 18 18 19 20 20 22 23 23 22 22 23 24 25 25 26 27 26 26 26 24 24 24 24 24 24
4 4 1 5 11 9 4 6 7 6 5 4 1 3 5 4 2 1 2 2 5 5 4 5 3 3 1 5 12 14 12 13 13 12 10 10 9 8 7 6 5 5 4 4 5 6 9 13 16 16 15 16 18 19 18 17 16 17 18 20 21 21 21 21 21 22 22 23 23 22 24 25 25 26 27 27 27 27 27 27 25 24 25 25 24 25
3 4 3 3 5 7 4 5 7 7 5 5 4 4 6 5 4 2 3 3 3 4 5 6 4 2 1 2 4 11 13 12 13 13 11 10 11 9 7 6 5 4 4 5 6 7 10 14 16 16 16 17 17 18 18 18 18 18 18 19 20 21 22 21 21 22 22 22 23 23 25 26 26 27 27 27 28 28 29 29 26 25 26 27 26 26
4 5 4 2 3 6 8 7 9 7 5 6 5 3 5 5 5 5 4 4 3 2 4 4 3 2 1 4 1 9 12 12 12 13 12 10 10 9 8 7 6 6 6 7 7 9 12 13 14 15 16 17 18 17 17 18 18 18 19 20 20 20 21 19 20 22 21 21 23 24 25 26 26 26 27 28 28 28 30 29 26 26 27 28 28 28
4 4 4 3 3 4 8 8 8 8 6 6 6 4 4 5 5 6 5 3 3 2 4 4 2 2 2 4 5 12 13 13 12 12 13 11 8 8 9 7 6 7 7 7 8 10 14 15 15 14 14 15 17 18 17 17 18 19 19 20 20 21 21 20 20 22 22 21 23 24 24 26 26 26 27 27 28 27 29 29 27 26 27 28 28 29
4 2 4 4 1 2 3 3 4 8 6 3 3 4 3 5 6 4 2 1 2 2 7 6 1 1 1 3 9 14 15 14 12 11 12 11 9 8 8 7 7 8 8 7 7 9 12 13 13 13 13 14 16 17 19 19 19 20 20 20 20 21 22 21 21 23 22 21 23 25 26 27 28 28 28 27 27 27 27 27 27 26 27 28 28 29
4 3 4 5 5 5 5 4 4 6 4 3 4 6 6 5 6 4 2 2 3 2 7 7 4 3 5 9 12 13 15 14 12 11 10 10 10 9 8 7 8 8 8 8 7 7 8 10 11 12 12 14 17 18 19 20 20 21 20 20 20 21 22 22 22 22 22 23 24 25 26 27 28 29 29 28 27 27 26 26 26 25 25 27 27 28
3 2 5 6 6 6 5 4 3 4 6 5 5 7 8 6 6 4 3 2 4 4 4 3 11 12 10 13 13 12 14 14 12 12 11 10 10 9 8 8 8 8 7 7 6 6 7 8 9 10 10 14 18 19 19 21 21 21 21 21 21 21 21 21 21 21 23 24 24 24 25 26 26 26 27 28 27 27 27 26 26 25 25 25 26 27
4 1 4 7 6 4 3 3 6 1 7 9 8 8 8 7 9 8 4 5 7 6 3 4 16 18 13 14 15 13 14 14 12 12 11 10 10 9 9 10 9 9 8 7 6 6 6 6 7 9 11 15 19 20 21 21 21 21 21 21 22 21 21 21 20 21 23 24 23 24 24 23 24 25 26 26 26 27 28 28 27 27 26 26 25 25
5 1 3 5 5 4 6 7 8 6 2 4 9 9 6 6 9 7 4 7 9 6 5 10 15 17 14 13 15 14 13 13 12 12 11 11 11 11 11 10 10 9 8 7 6 6 5 5 6 7 10 13 17 19 21 22 21 21 21 21 22 21 21 23 23 23 24 24 24 24 25 24 24 26 26 26 27 27 27 27 28 28 28 27 27 26
5 2 2 3 4 4 8 9 9 8 8 7 5 5 6 4 7 7 5 5 8 10 13 15 12 11 10 11 12 12 10 10 11 11 11 12 12 12 11 10 10 9 8 8 6 4 4 5 7 8 10 12 15 19 22 21 20 20 20 20 22 22 22 24 26 26 26 27 26 25 25 26 26 26 25 25 27 27 27 26 26 27 28 28 28 28
4 1 2 3 2 3 7 10 10 9 10 11 13 14 13 11 12 12 10 12 14 13 15 17 13 8 6 8 11 10 8 10 11 12 12 11 11 12 12 11 10 10 9 8 6 4 5 8 10 12 14 16 18 21 22 20 19 19 19 20 21 22 22 23 25 26 26 27 26 25 24 25 26 27 26 25 25 26 27 27 25 25 26 28 29 28
5 1 1 5 4 3 5 8 8 7 8 11 13 13 11 8 8 7 6 7 11 16 18 15 10 6 6 8 10 8 8 11 12 12 10 9 10 12 12 11 10 9 9 7 6 4 5 8 10 13 16 17 19 20 20 19 18 19 19 19 21 21 20 21 23 26 27 26 26 27 26 24 25 27 28 27 25 25 26 27 27 25 25 27 29 28
5 4 3 4 4 3 4 5 5 5 5 6 6 6 5 4 8 9 8 7 10 15 14 9 8 9 11 11 11 10 10 10 9 9 9 9 11 12 11 10 10 9 8 7 6 5 6 9 13 16 16 16 18 19 18 18 17 18 19 20 20 20 20 20 22 25 26 25 26 28 28 27 26 28 30 31 28 26 26 26 27 26 24 25 27 27
5 7 3 3 4 1 5 4 5 4 1 2 4 4 1 6 11 12 9 7 7 7 6 7 11 14 13 13 13 12 10 8 7 7 8 9 10 11 11 11 10 9 8 7 6 7 10 13 16 17 17 17 17 18 18 18 17 18 19 19 19 19 20 21 22 24 26 26 27 27 28 29 28 28 31 32 31 29 29 28 28 27 24 23 26 28
7 7 3 3 5 1 4 4 3 2 3 2 3 4 7 12 16 18 12 7 6 9 13 15 15 16 14 12 12 11 9 8 8 7 9 9 9 11 11 10 9 9 8 7 6 9 13 15 16 16 17 17 17 18 19 18 17 18 18 17 18 20 21 22 21 23 25 27 27 26 27 27 27 27 29 32 32 31 31 31 30 29 26 23 25 28
6 6 4 3 3 3 3 3 2 3 2 1 3 5 7 8 9 12 12 8 5 9 15 16 13 13 14 12 11 10 9 10 8 6 7 9 10 9 9 9 9 9 9 9 9 11 14 15 15 17 17 17 17 18 18 18 17 17 17 16 16 18 20 21 20 21 24 26 26 24 24 24 23 24 28 31 33 32 32 32 31 31 29 25 24 27
5 5 5 4 3 3 3 2 2 0 1 2 3 3 4 3 2 3 6 5 4 6 12 15 13 12 13 13 12 11 11 11 8 4 5 8 10 10 11 12 12 12 12 14 15 14 15 15 16 17 18 18 18 17 17 18 18 18 17 16 16 16 18 20 21 21 22 24 24 23 23 22 21 22 27 30 32 33 32 32 32 32 31 29 26 27
7 3 5 5 2 3 5 3 1 1 3 5 5 4 2 6 6 6 5 4 5 7 10 14 14 13 14 14 14 13 12 10 7 3 4 8 10 12 14 16 17 16 15 14 14 14 15 16 16 17 17 19 18 17 17 18 18 18 17 16 16 16 19 20 21 20 19 20 22 22 22 23 21 21 25 30 31 31 31 31 31 31 30 30 29 27
10 5 4 7 3 3 5 3 2 2 2 5 7 4 3 7 8 7 4 1 6 10 11 13 15 14 15 15 15 14 11 9 7 4 4 9 11 12 12 14 15 15 14 14 14 14 15 17 17 17 18 18 18 17 16 17 18 18 16 16 16 16 17 17 17 18 18 18 20 21 21 22 22 21 24 29 30 28 28 28 28 29 28 28 28 27
7 4 3 6 4 3 4 3 2 1 3 5 7 5 6 6 6 6 2 4 8 13 12 14 16 14 14 14 13 11 8 8 8 7 7 11 13 14 14 14 14 15 15 15 15 16 17 18 18 19 19 18 17 16 16 16 17 17 16 15 17 18 16 15 16 17 16 16 19 21 21 22 22 21 22 26 29 27 25 25 25 26 27 27 26 26
1 2 2 5 4 4 4 3 1 1 2 3 6 6 6 5 5 3 4 5 11 15 12 13 15 14 13 13 10 5 4 5 8 9 10 12 13 14 16 17 17 17 16 15 15 16 18 18 19 20 20 18 16 15 15 16 18 17 15 15 16 17 16 15 15 15 15 15 17 19 21 22 23 22 21 23 26 26 24 23 23 23 24 26 27 27
1 1 2 3 3 3 3 3 2 1 3 2 4 3 4 4 2 3 3 5 13 15 12 12 13 12 13 11 7 5 7 9 10 11 10 10 10 12 15 16 16 17 16 16 16 17 18 18 19 20 20 19 16 14 14 16 17 16 15 15 16 15 15 15 15 14 14 16 16 16 19 21 22 21 20 20 23 26 25 23 22 22 22 24 26 27
2 2 1 1 2 3 3 2 3 2 4 4 4 1 1 3 4 4 6 9 12 13 12 11 10 10 11 9 7 9 12 12 12 10 9 8 9 12 15 17 18 16 15 16 17 18 19 19 18 17 18 19 17 15 14 14 14 12 13 15 15 14 15 16 16 15 16 17 16 15 16 19 21 21 19 17 20 23 25 24 24 23 22 23 25 27
1 2 3 1 1 2 3 2 2 2 3 4 5 2 2 4 5 7 10 10 10 11 10 10 10 10 9 9 10 13 14 13 11 10 9 8 10 12 15 18 19 18 15 15 18 20 19 18 18 17 17 17 17 16 14 12 11 11 13 14 12 11 14 16 15 15 16 17 17 15 14 17 20 21 19 17 18 20 22 24 24 24 24 23 24 27
2 2 5 3 0 2 4 3 2 3 5 5 5 6 7 8 7 8 11 10 9 9 8 9 11 11 10 12 13 13 12 11 11 10 9 8 9 13 15 17 20 19 15 15 20 22 20 18 18 18 16 15 16 16 13 11 11 12 13 13 10 9 14 16 15 14 15 14 15 16 14 15 17 20 19 18 18 17 18 22 23 23 24 24 25 26
1 3 6 5 4 5 6 4 5 7 7 7 8 8 9 10 9 8 10 9 9 9 9 9 11 12 12 13 13 12 11 12 12 10 9 8 10 13 16 17 18 18 16 20 23 22 19 18 17 17 16 14 14 15 14 12 12 13 13 12 12 12 13 14 14 14 15 14 13 15 15 13 13 16 17 17 17 16 15 18 21 22 23 24 25 26
2 2 5 4 4 4 4 3 6 9 8 8 9 8 9 11 9 8 8 8 9 10 10 11 12 12 12 12 12 12 12 13 12 10 9 9 10 12 13 14 16 19 22 23 22 20 19 19 17 17 17 14 13 13 13 13 14 13 11 12 14 15 14 14 14 13 13 14 13 14 14 12 11 13 14 14 15 15 14 15 18 20 21 22 24 25
1 3 6 4 3 4 5 5 9 11 9 8 8 7 8 9 10 9 8 9 10 11 12 14 14 12 10 10 12 13 13 11 10 11 10 10 10 11 13 15 17 20 22 22 21 20 20 19 18 17 17 14 12 10 11 14 15 13 10 10 11 12 12 13 13 13 13 14 13 14 15 12 10 11 12 12 12 13 13 14 16 18 19 20 23 25
2 4 5 5 6 6 6 8 10 10 9 7 7 7 7 8 10 11 11 11 12 13 13 15 14 12 12 13 12 13 12 10 10 13 11 9 9 13 16 17 18 20 22 22 22 21 19 18 18 17 16 14 12 10 11 14 14 12 11 11 10 8 9 9 10 10 12 14 14 13 14 14 12 11 13 12 10 10 11 12 14 16 16 17 19 23
4 5 5 7 7 4 4 7 9 8 6 6 7 9 10 10 11 12 12 12 12 13 13 13 12 13 16 17 16 12 10 10 13 15 12 9 13 18 19 19 21 23 24 23 21 19 18 17 17 17 16 14 13 12 11 12 12 12 11 11 10 9 10 11 11 10 11 14 16 13 12 13 14 14 14 13 10 9 10 10 11 13 15 15 15 18
4 7 7 6 5 6 7 8 7 6 6 7 9 12 12 11 11 12 12 12 11 11 11 11 12 13 14 15 16 15 12 12 16 16 12 13 19 21 20 21 23 23 22 21 19 18 17 16 15 16 17 15 13 11 10 11 13 12 10 9 10 11 10 11 12 12 12 13 15 15 12 11 13 14 14 14 13 11 11 11 9 9 12 13 12 13
Wind_Direction
167 193 198 192 201 202 215 230 237 238 240 225 182 188 211 221 246 218 173 185 180 167 192 169 142 110 78 74 84 91 93 100 102 98 95 93 90 89 88 88 85 83 78 69 64 63 66 67 66 68 73 77 76 75 77 77 77 85 87 85 90 98 103 94 78 36 11 24 212 254 279 268 248 189 190 209 213 217 243 247 236 239 240 232 228 232
167 196 209 205 209 214 218 228 241 245 249 253 230 207 219 214 236 223 168 182 180 147 179 164 110 81 76 80 84 87 88 90 96 98 94 91 91 90 89 88 85 82 76 67 61 59 62 62 62 63 66 70 70 69 72 71 69 72 72 67 70 75 72 68 54 40 29 16 9 319 293 280 285 275 185 182 188 200 228 243 243 246 244 240 239 239
198 211 206 204 212 224 228 226 235 245 248 257 265 255 248 227 233 229 173 176 177 149 164 128 96 86 86 85 81 85 91 86 85 92 90 89 88 85 88 87 84 80 72 68 62 58 59 59 61 62 62 63 64 65 67 69 68 67 65 60 58 56 49 44 36 29 18 2 351 324 308 291 293 301 259 190 191 198 208 218 233 242 238 241 247 245
199 212 203 207 212 219 231 229 229 241 245 247 244 241 261 247 230 217 171 170 173 165 134 112 98 100 96 89 84 82 90 91 85 85 83 83 82 81 84 80 79 80 75 76 72 64 61 58 57 59 60 60 60 60 60 64 66 64 62 57 54 56 51 45 42 35 24 13 2 334 315 299 284 284 286 256 206 207 200 197 211 232 239 242 246 245
196 194 199 213 215 215 225 232 228 230 239 245 234 228 253 254 238 179 156 164 164 135 118 113 96 93 109 103 103 97 96 99 95 92 89 87 87 83 78 74 74 76 77 78 77 73 67 62 59 58 59 59 57 56 54 58 62 61 59 53 52 57 49 44 44 38 34 30 22 7 350 330 305 302 304 295 262 241 214 202 205 216 241 248 252 253
208 187 189 211 219 216 221 230 228 214 220 251 238 231 241 254 269 170 154 156 144 125 129 122 101 27 119 113 121 125 113 110 108 104 100 97 96 89 81 79 76 78 78 80 84 85 78 70 65 62 61 59 57 55 54 58 60 59 56 47 47 50 42 41 41 32 34 35 27 20 11 360 339 326 325 320 314 305 286 252 222 213 245 265 270 266
223 197 184 200 214 215 218 228 230 210 204 247 240 236 240 251 291 254 161 156 146 159 154 138 128 165 155 125 132 127 111 113 113 106 105 104 100 95 94 93 89 87 83 83 86 84 81 77 73 69 65 63 63 60 58 59 59 57 54 44 39 38 31 34 34 28 31 31 28 24 18 14 5 350 339 332 331 325 313 301 281 256 265 279 266 258
213 212 189 192 207 215 215 221 226 213 201 240 249 246 248 247 279 276 169 159 145 148 158 145 128 130 183 163 146 130 117 118 112 104 107 111 108 104 104 102 99 94 87 87 85 82 84 82 81 76 67 66 66 62 59 57 55 52 49 41 36 35 30 27 28 26 26 29 27 23 19 19 15 10 3 355 353 351 341 324 311 302 300 291 271 263
198 217 199 185 200 214 210 213 218 218 209 231 256 255 256 247 252 256 206 201 135 133 164 164 121 114 187 176 149 133 127 132 129 124 123 120 117 113 110 107 102 95 85 82 81 81 84 81 80 76 67 64 62 58 56 53 52 50 46 45 40 36 33 27 27 26 21 24 26 22 21 18 13 12 10 7 8 9 5 358 348 342 337 327 307 290
192 215 209 186 196 207 205 209 214 223 213 205 247 260 266 252 243 195 206 215 134 136 181 188 153 133 163 169 155 145 146 150 143 138 134 128 124 117 114 114 109 102 91 85 80 73 74 75 74 70 64 59 56 54 55 54 56 53 50 53 47 39 36 29 29 32 26 23 24 23 24 20 16 13 9 7 9 8 5 2 359 355 351 347 339 323
204 205 215 199 192 191 200 211 215 225 205 172 226 255 280 270 268 83 168 133 119 175 200 192 175 153 141 179 177 163 155 152 144 141 139 130 126 123 122 122 115 110 101 89 79 67 66 71 72 68 60 56 54 52 55 58 58 52 49 53 51 47 44 36 35 36 29 28 27 24 23 22 18 13 9 9 6 4 3 358 352 349 347 348 346 336
223 198 210 218 188 181 195 210 213 224 209 176 212 225 265 290 343 36 8 76 146 246 223 182 166 154 150 198 191 135 126 140 142 142 141 135 133 132 129 124 118 112 102 88 79 67 63 65 67 67 63 58 57 58 61 55 44 46 50 50 50 49 45 43 44 38 33 37 36 26 22 22 19 15 13 11 7 4 2 357 352 348 346 348 349 344
239 204 198 212 201 182 189 202 208 222 208 189 208 173 165 273 233 212 287 136 206 239 205 170 137 142 164 291 152 126 123 133 134 133 137 136 134 132 124 114 108 104 98 90 83 74 65 63 67 73 74 65 53 56 62 49 41 46 49 48 47 47 45 45 44 39 37 46 42 32 29 25 21 19 18 15 12 8 4 360 357 353 348 347 348 348
244 243 206 200 201 189 194 193 192 211 191 183 201 163 152 176 181 209 218 163 235 219 186 173 117 100 283 4 94 119 118 121 121 121 126 126 126 127 119 108 102 99 94 90 89 83 80 82 79 79 81 69 51 52 57 51 46 46 46 47 47 46 45 41 38 38 40 45 42 35 33 29 24 25 26 22 15 8 4 3 1 359 354 352 352 352
206 245 216 192 179 186 207 202 168 167 162 187 192 148 168 189 162 185 176 152 233 227 181 168 104 84 189 69 88 106 109 113 116 117 115 113 112 107 99 95 94 93 88 85 84 84 100 102 89 80 79 74 64 60 60 59 56 49 47 49 46 44 43 38 38 44 44 41 38 36 34 30 29 33 32 25 18 12 9 7 5 3 359 357 355 353
201 226 213 192 185 185 200 207 158 147 169 214 194 154 200 211 145 159 178 149 159 171 120 77 67 72 85 87 99 108 108 111 114 113 109 100 89 85 83 83 86 87 89 95 102 104 115 117 108 98 91 85 79 70 62 61 58 51 47 47 44 42 42 38 40 46 43 39 38 37 35 34 35 35 29 24 24 22 18 14 11 7 3 0 357 355
189 226 217 199 209 198 188 193 178 160 170 200 210 202 217 210 144 145 191 146 101 97 102 84 104 106 95 82 109 116 111 114 113 107 103 93 85 83 82 84 89 97 115 122 128 116 108 118 120 112 100 89 80 68 62 59 55 54 50 47 45 41 37 38 44 45 42 41 41 38 36 36 35 31 27 26 28 25 21 20 19 14 9 5 2 360
162 216 222 189 198 202 165 176 243 229 190 178 200 210 213 227 197 130 147 147 112 125 161 148 143 146 149 142 141 133 126 127 122 108 102 97 94 94 95 107 116 127 138 131 124 114 101 98 103 105 95 79 68 65 64 59 55 57 54 49 47 43 37 40 46 46 42 41 40 36 34 34 32 30 30 31 30 27 24 23 22 19 15 10 6 4
156 170 240 183 178 190 160 172 239 249 234 205 192 194 172 193 229 170 142 163 158 155 104 125 148 162 170 159 154 151 144 136 126 118 120 120 120 123 126 138 144 144 142 134 130 123 104 90 84 85 80 71 67 65 61 56 54 54 47 42 44 43 42 45 48 46 44 43 41 38 36 35 33 32 34 33 31 29 28 25 22 21 18 14 11 7
157 135 278 190 170 175 173 178 209 237 239 245 276 236 188 161 172 168 167 168 161 163 127 131 163 207 206 162 161 164 153 139 133 131 132 131 134 140 141 145 147 147 150 138 128 113 97 87 76 71 70 70 71 67 59 56 55 50 42 40 42 41 44 50 51 47 46 44 42 40 38 35 34 35 35 33 31 31 32 28 26 24 21 18 14 11
142 129 255 214 171 168 187 193 187 188 212 230 247 228 211 178 137 133 230 189 149 150 139 136 180 240 236 161 166 164 149 140 138 134 131 133 138 139 136 138 141 144 144 126 114 103 94 89 80 72 68 71 75 73 65 59 57 54 48 43 40 40 42 49 52 50 47 45 42 41 38 36 36 36 35 33 32 34 34 30 28 26 24 21 17 14
144 142 183 240 182 174 185 182 175 174 187 196 195 203 196 178 146 143 273 256 166 148 146 145 165 205 301 342 170 153 141 139 137 132 133 137 137 135 130 131 131 126 115 102 97 93 91 94 93 86 74 69 73 76 72 63 57 57 53 46 42 41 41 48 53 51 46 44 43 41 39 37 37 36 35 34 34 36 35 31 29 28 26 24 21 17
133 125 161 223 230 190 183 178 176 186 211 218 224 218 178 172 167 166 210 242 209 131 107 110 116 137 330 332 140 139 132 131 132 129 130 131 130 130 127 124 120 108 94 87 84 81 83 88 92 90 82 74 71 71 71 66 60 58 55 50 45 38 37 46 54 50 46 47 45 42 41 39 37 36 36 35 35 35 34 32 31 30 28 26 23 20
145 124 146 195 257 191 178 181 175 183 212 238 248 243 177 180 180 165 172 201 212 149 105 87 90 141 320 340 110 123 119 120 126 128 127 126 127 130 130 125 116 104 90 82 78 74 75 74 74 75 77 78 75 69 66 65 61 59 56 53 46 37 37 49 56 50 46 48 47 43 42 40 37 36 36 36 35 34 32 31 32 32 29 28 26 23
189 153 120 136 178 160 170 194 189 192 204 224 250 268 237 187 169 166 193 231 268 185 127 119 127 158 56 72 108 115 117 119 125 129 129 129 132 132 128 120 110 100 89 82 77 73 73 72 70 69 70 76 78 71 65 61 58 56 55 54 49 40 42 52 55 49 46 49 48 44 42 40 37 36 35 34 33 31 31 30 31 32 30 28 27 24
174 152 117 133 162 177 187 208 204 190 196 222 230 241 247 215 179 163 147 183 231 146 111 122 138 110 104 115 116 118 122 124 127 131 129 128 130 130 123 115 107 102 96 89 83 80 79 76 76 75 75 79 79 73 67 61 57 54 52 55 53 44 45 52 52 48 49 50 49 45 43 41 40 39 36 34 32 30 29 28 28 30 29 28 27 24
121 145 136 134 155 178 184 213 225 169 174 203 225 236 245 240 218 187 144 184 187 115 60 138 143 134 136 138 133 132 130 130 136 137 133 132 131 128 122 115 110 107 105 100 94 90 85 83 83 79 79 84 81 74 68 62 58 53 50 53 54 47 47 51 50 50 53 51 49 47 45 44 44 42 40 37 35 32 29 28 27 27 26 25 27 26
83 110 162 145 149 152 115 13 345 309 193 195 201 225 237 228 224 218 178 160 153 111 16 186 144 137 148 150 142 142 138 137 143 142 137 135 131 125 120 118 116 112 109 107 102 97 92 91 92 83 82 89 87 77 69 63 59 54 51 53 54 49 46 48 48 52 53 50 48 47 44 46 47 45 43 41 38 35 32 30 29 28 26 24 24 24
102 129 189 165 161 128 84 39 8 2 324 201 197 219 240 209 198 197 165 162 162 141 159 176 152 138 146 148 141 141 142 141 141 137 132 129 127 128 125 122 118 110 106 104 99 102 109 107 97 83 80 90 91 82 72 65 59 55 53 55 57 52 48 49 49 51 49 45 46 46 44 46 46 42 42 42 40 36 33 32 31 30 29 26 25 24
104 143 173 152 169 132 89 60 39 40 39 38 41 20 13 63 119 107 80 98 111 116 132 141 132 120 129 135 132 132 132 132 129 126 127 131 134 133 127 120 114 108 104 100 95 103 106 89 75 68 68 75 82 81 73 65 60 56 53 57 61 56 51 52 52 50 48 45 43 44 46 47 44 40 41 43 40 38 34 32 31 31 31 29 27 27
93 190 192 104 89 82 82 71 61 72 78 60 36 25 30 50 75 87 95 93 89 97 113 116 110 104 113 122 122 122 122 125 127 128 134 140 138 129 119 115 113 110 108 106 104 103 81 63 56 64 73 74 74 76 73 66 62 59 56 59 64 61 55 56 56 52 49 46 41 41 46 48 45 43 42 41 40 39 37 34 33 32 32 30 29 28
97 41 359 75 73 29 65 86 85 80 77 60 35 16 17 37 60 76 89 103 115 122 120 119 126 140 145 133 123 121 126 129 132 135 137 136 128 121 117 117 115 113 113 111 109 95 72 61 57 67 78 77 73 74 73 69 66 63 60 62 66 65 58 58 62 58 53 47 43 42 43 43 44 45 42 37 35 35 35 36 35 33 32 32 30 29
111 96 55 84 95 8 17 80 91 64 47 37 12 346 346 48 78 70 47 55 110 129 134 148 160 148 143 141 134 135 140 138 136 135 130 124 123 120 117 117 115 113 112 108 104 90 74 73 72 71 75 77 77 77 75 73 70 67 66 65 65 64 59 59 65 64 58 51 47 45 42 39 42 46 42 36 33 31 29 31 32 32 32 33 32 31
92 100 96 91 103 346 326 14 53 58 74 283 298 305 91 104 95 84 63 46 74 104 113 121 132 136 141 144 143 144 144 135 124 119 116 117 120 117 113 115 114 112 108 103 99 86 78 81 83 80 77 76 79 81 79 76 73 71 72 70 66 63 59 60 66 67 63 57 52 49 45 43 47 47 42 38 35 33 30 27 27 27 29 33 34 33
94 96 77 62 103 130 335 23 83 176 226 261 326 38 89 103 100 93 80 55 66 99 105 110 125 137 139 140 139 136 130 119 109 107 108 109 110 114 117 116 111 108 107 105 98 88 86 88 90 88 83 78 78 82 82 77 74 73 73 72 71 68 62 61 65 68 68 63 58 54 51 50 52 49 44 41 38 36 33 29 26 25 26 34 38 34
111 114 93 62 95 108 36 42 133 202 268 44 77 83 95 100 96 89 75 56 67 107 114 118 128 134 134 135 133 126 119 109 97 89 102 111 115 119 121 116 112 111 110 109 103 97 97 97 95 94 91 84 79 80 82 81 77 74 71 68 71 74 70 65 65 70 73 68 62 58 55 54 55 53 49 44 40 38 35 31 29 27 28 32 36 32
71 109 114 93 81 105 104 66 55 72 229 174 157 163 142 129 143 113 89 85 109 120 121 127 135 139 137 132 127 123 117 110 100 76 90 108 110 107 107 108 111 111 110 112 109 104 102 102 99 99 99 92 83 79 82 85 81 75 70 63 64 73 74 68 65 70 75 72 65 60 56 53 55 59 55 48 43 41 37 34 33 32 31 30 29 28
41 63 123 113 87 101 109 102 102 178 212 202 214 236 137 114 130 129 104 102 135 141 137 137 141 143 137 131 130 129 122 120 125 125 114 113 108 103 102 102 106 111 114 118 121 117 112 105 100 100 101 98 92 83 81 83 81 78 73 61 57 69 75 71 67 69 75 74 66 62 60 56 57 63 59 50 46 44 41 39 38 36 35 32 29 27
39 24 87 105 111 125 116 126 169 199 246 212 206 210 123 127 129 108 79 123 158 151 147 143 142 144 143 140 140 141 139 140 149 163 143 121 113 108 106 107 117 127 128 123 120 119 116 111 103 99 95 93 93 90 87 86 83 80 74 60 53 62 74 78 74 72 78 79 70 66 64 59 60 67 62 52 49 48 44 44 43 40 39 37 34 32
31 354 58 107 123 130 115 117 153 221 260 208 179 163 149 142 107 88 104 220 167 153 152 148 147 150 148 146 147 151 155 153 154 157 142 125 118 117 124 137 146 145 138 132 126 119 116 114 108 103 95 89 89 90 89 88 85 80 74 66 56 51 59 74 75 71 79 85 76 71 68 62 63 70 65 54 52 51 48 46 45 43 41 38 35 33
37 324 61 105 108 98 105 115 140 252 254 174 157 167 160 119 79 103 209 200 152 147 150 150 150 152 151 150 152 150 133 124 131 137 136 130 127 133 146 155 153 145 142 141 129 117 113 110 107 106 102 95 91 90 89 89 86 80 73 71 65 51 48 63 71 68 75 85 83 77 72 67 67 69 65 56 52 52 51 48 44 42 40 38 35 31
141 359 32 88 108 104 103 103 94 326 283 194 153 163 139 116 129 219 190 136 136 141 146 150 152 152 150 150 144 128 123 123 128 135 138 133 131 140 146 139 129 129 134 132 123 117 114 109 105 106 106 103 98 93 91 91 90 86 79 75 72 58 49 58 68 68 73 81 86 82 75 70 67 65 63 58 51 50 52 50 45 41 39 37 34 31
161 125 70 85 117 104 82 90 121 186 229 188 144 111 104 154 192 172 116 113 128 136 142 149 148 146 148 146 134 132 135 136 138 140 136 127 126 130 129 121 118 123 132 133 128 121 113 107 104 103 105 107 103 95 92 93 92 93 90 82 77 71 63 60 62 65 69 71 71 75 78 74 66 61 63 60 50 47 49 49 48 45 42 39 35 32
244 156 156 187 222 131 130 170 206 196 183 161 146 147 132 131 147 140 124 124 134 140 144 147 146 148 149 140 135 137 138 141 145 140 131 125 126 127 126 127 133 142 152 148 134 123 116 113 110 105 103 105 104 98 94 92 87 87 92 87 81 85 84 73 62 59 65 66 62 62 77 80 66 59 63 61 49 45 46 46 48 49 46 45 40 35
291 147 127 118 115 123 133 165 169 90 84 92 105 115 111 106 112 123 124 130 140 144 146 146 147 149 143 136 137 139 140 142 141 138 135 130 130 136 138 142 151 162 167 149 128 121 119 116 113 109 105 104 106 102 96 89 81 80 85 82 73 83 90 82 67 52 49 58 62 59 71 83 68 58 62 60 50 47 45 42 46 48 47 47 45 40
206 122 98 101 116 92 70 70 89 87 80 80 89 102 108 107 111 118 122 129 138 142 145 147 145 143 139 139 140 139 139 141 139 141 144 136 134 144 148 152 160 163 147 124 117 118 119 114 111 110 105 102 107 107 101 92 85 81 76 67 66 77 87 84 78 61 42 41 51 55 66 84 73 56 55 55 52 53 48 42 45 48 48 49 48 45
215 102 83 103 134 106 77 81 95 96 97 96 93 96 105 112 120 125 126 131 134 132 134 134 134 135 137 139 140 138 141 147 147 147 145 137 141 151 149 144 143 137 127 122 124 127 126 120 114 109 102 95 99 107 107 101 93 85 71 59 61 70 75 75 79 75 53 39 42 51 62 76 72 56 49 49 55 59 54 47 46 47 49 51 50 49
195 108 93 89 87 92 109 119 104 98 103 104 100 104 112 117 121 119 114 116 116 115 120 127 131 135 137 137 139 141 146 154 151 142 137 141 149 150 139 129 125 123 124 126 126 124 121 117 113 109 106 103 99 98 102 102 99 92 83 74 68 68 69 62 58 57 50 39 38 48 57 62 64 58 48 43 50 57 57 53 48 48 53 54 51 51
111 110 108 106 99 94 107 121 116 108 107 109 109 111 111 111 113 112 110 112 113 113 119 128 133 137 139 141 146 148 150 150 139 133 138 150 148 137 129 123 115 111 111 113 114 116 117 117 116 113 111 112 108 95 88 93 95 94 92 84 75 79 87 70 48 46 44 30 22 33 49 54 58 57 47 40 44 52 56 57 52 49 53 56 53 52
89 109 111 116 124 142 156 146 136 126 125 131 124 115 112 112 112 112 113 116 119 123 128 132 133 133 137 145 152 152 144 137 138 142 147 145 134 131 131 124 113 107 107 108 109 112 114 116 119 118 115 115 113 103 93 93 91 87 83 72 61 73 91 83 63 51 38 22 14 18 37 55 62 58 47 42 47 52 53 56 56 50 49 51 51 50
113 148 152 141 148 175 168 149 130 115 121 129 121 115 116 116 114 116 120 121 123 130 134 135 135 135 141 150 151 145 139 142 148 148 140 130 131 133 130 123 116 114 115 117 116 117 119 120 121 120 117 116 116 107 93 93 95 91 82 68 55 56 68 79 75 55 30 18 15 16 28 54 63 56 45 42 52 63 58 53 57 54 47 44 42 43